Theta_e
326 331 326 316 317 313 325 334 333 333 331 328 324 321 331 338 337 338 336 336 334 332 328 323 316 312 310 309 310 311 312 311 311 309 310 313 318 322 314 321 319 318 321
327 325 317 317 330 312 331 332 331 331 332 330 326 322 328 332 332 334 334 335 333 330 327 321 314 312 310 310 311 310 311 314 313 310 309 309 311 309 310 312 317 325 315
323 320 316 318 330 318 326 328 328 329 327 327 324 321 322 329 331 332 332 332 327 320 315 313 311 312 311 310 311 311 312 313 312 310 310 309 309 309 309 309 309 309 313
320 321 316 316 331 329 320 322 323 318 318 315 313 310 310 322 329 329 329 327 324 320 312 312 309 311 310 310 313 315 315 313 312 312 311 310 309 309 309 309 309 310 310
321 321 315 314 326 326 324 320 316 315 313 312 311 309 309 313 319 322 324 319 315 314 312 310 310 310 310 310 312 315 314 315 313 311 313 311 311 311 310 310 310 310 311
324 327 323 318 316 326 328 322 315 313 312 311 310 309 309 310 310 313 311 309 310 313 310 312 310 311 311 311 311 313 314 314 313 312 312 312 311 312 312 312 312 314 313
328 330 327 321 314 326 325 316 313 312 311 311 310 310 309 309 309 308 309 309 309 309 309 309 310 311 311 312 312 312 313 313 313 314 312 312 312 311 311 313 315 316 317
330 330 330 327 319 317 316 314 313 312 313 313 313 312 312 311 310 310 310 310 310 310 311 311 311 311 311 311 311 311 311 312 313 314 313 313 313 311 311 311 312 315 318
327 326 326 328 328 330 326 317 315 315 316 318 319 318 317 316 314 313 312 312 312 312 312 312 314 315 317 318 318 318 315 312 314 315 315 315 315 313 312 313 313 313 317
328 327 324 324 325 326 322 323 321 318 317 320 323 323 323 323 323 323 322 320 320 318 318 320 321 322 322 322 323 322 321 320 321 319 321 320 321 321 319 318 317 317 318
329 327 325 323 324 323 322 323 323 324 323 324 324 324 324 324 324 324 323 323 324 323 323 322 323 323 323 323 322 323 323 323 323 323 323 324 323 324 323 321 321 321 321
332 327 326 323 323 321 322 324 324 324 324 324 323 323 322 320 319 317 318 321 324 325 324 323 323 323 324 324 323 324 323 323 324 323 323 323 323 323 323 323 323 323 323
333 330 327 321 320 323 325 325 325 323 321 319 316 314 314 313 313 313 313 314 312 312 314 320 323 323 322 323 323 323 323 322 322 322 322 322 322 322 322 322 323 323 323
333 331 327 321 324 325 324 325 324 322 316 314 314 315 315 314 313 312 312 311 311 311 312 314 316 314 319 322 320 321 321 321 321 321 320 321 321 321 322 320 321 322 322
331 328 323 325 325 324 322 321 319 317 315 315 315 315 315 315 314 313 312 312 312 314 313 315 318 319 320 322 322 323 321 322 321 320 319 320 321 320 320 320 321 321 322
331 331 329 325 325 325 322 319 318 316 316 316 316 316 317 316 316 315 314 314 314 314 314 316 318 320 321 321 321 322 322 322 323 322 321 319 320 319 319 319 320 320 320
331 332 331 329 327 325 322 321 319 318 318 317 318 319 319 319 318 318 316 315 315 315 316 317 318 320 320 321 321 321 322 323 323 322 322 321 321 320 320 319 319 319 319
333 333 332 330 328 328 325 324 323 321 320 320 320 320 321 322 323 322 320 317 316 317 318 318 318 319 319 321 322 324 326 325 324 323 320 320 323 321 320 320 319 320 320
333 334 333 332 331 330 329 326 325 324 323 323 323 323 324 325 326 327 326 324 323 322 319 318 318 321 318 316 321 323 325 326 325 324 320 319 321 322 323 321 319 320 320
334 334 334 332 330 332 333 332 331 330 328 328 328 327 328 329 330 330 330 330 328 327 325 321 318 316 317 317 318 319 325 326 325 323 319 319 320 320 322 321 321 319 319
335 335 334 333 332 333 333 333 333 332 332 332 333 332 332 332 332 331 331 331 330 330 330 329 320 315 313 314 324 326 324 320 323 324 318 319 320 320 320 322 319 318 319
335 335 334 334 334 334 334 334 334 334 334 334 333 333 333 333 331 331 330 330 329 329 329 326 320 316 313 313 320 322 324 321 321 320 320 318 320 320 320 320 319 317 317
334 334 334 334 334 334 334 334 334 334 334 334 333 332 331 328 325 324 324 324 323 324 322 320 319 315 314 314 317 321 322 320 319 320 319 319 321 321 320 319 317 316 315
331 331 331 332 332 333 333 333 333 332 331 328 325 319 315 315 317 318 318 318 319 320 319 319 317 316 314 315 316 318 320 321 321 319 319 317 319 316 319 319 318 316 314
321 324 325 327 329 329 328 326 323 318 314 311 310 310 311 311 311 312 312 313 315 317 318 318 317 317 314 315 317 318 321 320 320 320 319 318 318 317 315 317 317 315 313
310 310 310 310 310 309 310 310 310 311 311 311 310 310 310 310 310 309 310 311 313 315 316 316 316 315 314 314 317 318 320 320 316 319 319 319 318 316 316 314 316 315 313
Wind_Speed
18 16 11 10 12 15 19 15 15 15 14 12 11 11 11 18 19 18 14 10 7 8 9 10 10 10 10 10 11 12 12 13 15 15 14 13 12 12 10 11 9 6 8
20 17 12 13 12 15 19 14 12 11 10 9 7 8 10 10 9 10 8 7 7 7 8 8 8 8 8 9 9 10 12 13 16 15 14 13 11 12 10 8 11 10 6
18 17 14 15 15 14 17 13 10 9 7 6 5 5 7 8 7 7 6 6 4 6 6 7 7 7 6 7 7 9 11 12 13 14 14 12 12 12 11 10 10 10 9
16 16 15 16 15 14 13 12 9 7 7 6 5 4 7 8 6 4 3 2 4 6 6 6 8 7 6 6 6 7 8 10 10 11 12 11 11 11 10 9 9 9 9
17 15 15 15 16 13 11 10 9 7 7 6 6 5 5 7 7 5 2 3 4 3 4 5 6 8 7 5 4 4 5 6 8 8 8 9 9 9 9 8 9 9 8
17 14 13 13 15 13 10 8 7 7 6 5 6 6 6 5 4 3 1 2 1 1 3 3 4 5 6 5 2 2 3 4 6 6 6 7 8 8 8 8 8 8 9
18 15 13 12 14 13 10 6 6 6 7 7 6 6 5 4 3 3 2 4 4 3 2 3 3 3 3 2 1 1 2 3 4 5 5 6 6 7 6 6 6 6 7
15 15 13 12 12 11 9 8 8 8 7 7 7 6 6 4 3 3 2 2 3 3 4 4 4 3 3 2 1 2 3 5 4 5 5 5 6 7 7 6 6 6 6
15 14 13 12 11 10 9 8 9 8 7 6 6 6 5 4 4 3 3 2 3 3 3 3 2 2 2 2 2 2 3 3 5 6 5 5 5 7 7 7 7 7 6
14 13 12 12 11 10 8 8 7 7 8 7 5 3 2 2 2 1 1 1 2 2 2 2 3 4 4 4 4 3 2 3 5 5 5 5 5 7 7 8 8 8 8
14 14 12 12 12 10 9 8 7 6 5 4 2 1 1 2 3 3 3 2 3 4 5 5 6 6 6 6 8 5 5 6 7 7 8 8 7 8 9 9 8 8 8
16 16 13 12 12 11 10 8 7 6 4 2 1 1 1 2 3 4 5 6 6 7 7 8 8 7 7 9 8 9 9 10 11 11 12 10 10 10 11 9 7 7 7
13 16 15 14 13 12 10 9 8 6 4 2 1 1 0 3 4 6 7 8 10 11 10 10 10 11 10 11 10 12 12 12 13 13 15 14 13 13 13 10 11 12 10
16 14 15 16 15 13 12 10 8 6 5 4 3 1 1 3 4 6 7 8 9 10 11 11 12 12 13 13 11 10 12 12 14 15 15 17 17 16 16 12 10 13 12
15 15 16 16 15 14 12 11 8 6 5 4 2 2 3 5 6 7 8 9 10 11 12 12 13 13 13 14 14 15 14 14 13 15 15 17 11 12 12 12 14 14 15
16 14 14 14 13 12 12 10 8 7 7 6 5 5 6 6 7 9 9 11 11 12 13 14 15 16 17 18 18 18 18 17 17 18 16 15 17 15 16 15 17 16 15
18 14 15 12 12 12 11 10 10 9 10 10 9 9 9 11 11 11 12 14 14 14 16 17 18 19 20 18 19 19 20 20 20 21 21 20 22 23 21 18 19 18 20
17 17 14 13 13 14 13 12 12 12 13 13 13 13 13 14 15 16 17 17 17 18 20 21 21 22 22 22 23 22 24 24 25 22 21 20 22 22 22 21 21 22 23
17 16 16 15 15 13 13 14 14 15 17 17 17 18 17 18 19 21 23 23 21 22 24 25 25 25 27 25 26 27 27 29 24 22 21 19 24 23 21 22 22 21 18
15 16 15 16 15 14 13 14 15 17 18 20 20 21 21 23 23 24 27 27 26 27 28 29 30 29 29 30 28 29 29 29 27 25 24 23 23 25 24 22 16 18 16
19 18 17 15 14 14 15 16 17 17 18 19 20 21 23 25 28 29 31 32 31 31 30 33 34 34 32 31 30 30 30 28 31 28 26 24 25 25 24 18 20 18 16
25 24 23 21 19 19 19 20 21 23 23 24 24 25 26 28 30 31 33 34 34 33 33 34 35 37 35 32 31 31 31 28 29 30 28 25 21 24 24 18 18 17 18
25 24 23 24 24 23 24 25 27 28 27 27 27 26 26 28 28 29 28 29 30 31 31 31 33 34 35 34 31 29 17 20 22 22 24 21 22 23 24 22 21 19 20
15 16 15 17 17 17 18 19 19 20 23 25 26 27 27 26 25 25 26 26 27 29 32 32 31 33 33 34 32 31 31 35 30 17 23 23 27 29 25 25 23 21 23
8 6 6 7 9 11 13 14 16 20 21 22 22 22 22 23 24 25 25 24 24 26 27 26 28 32 32 32 31 31 32 33 38 35 25 29 31 31 31 32 28 24 26
11 8 6 4 1 3 5 7 8 10 11 13 14 16 18 19 20 19 20 20 21 23 26 28 31 31 31 32 30 30 35 36 35 38 35 33 32 31 31 34 32 29 28
Wind_Direction
161 162 163 149 133 139 136 132 124 122 121 113 108 106 104 93 109 115 106 92 65 52 38 39 40 45 60 64 65 65 69 70 67 64 61 61 63 74 86 72 68 93 93
156 162 157 145 134 142 146 140 134 131 130 123 111 109 115 106 103 100 98 79 62 30 25 32 45 56 60 65 62 61 66 70 63 60 60 55 62 64 69 67 67 63 79
156 154 153 147 148 146 158 153 138 142 146 147 140 130 132 126 120 119 107 94 54 49 31 31 51 63 66 67 63 52 58 66 65 59 56 53 56 59 63 65 57 59 60
156 153 152 149 148 153 156 171 163 162 164 158 160 163 161 156 142 151 143 58 22 353 7 46 52 75 79 82 77 57 44 58 63 59 53 55 52 55 53 50 52 51 48
154 147 148 154 157 158 156 163 173 169 168 166 159 156 169 168 183 205 249 301 303 323 16 42 69 75 79 81 79 77 45 47 49 53 51 50 46 50 48 46 46 44 39
153 145 144 152 158 157 158 158 157 159 160 154 150 142 146 158 172 189 229 344 40 63 25 67 76 79 82 87 80 41 25 26 33 35 41 41 35 34 28 30 33 35 34
155 151 146 143 157 159 171 171 160 149 138 129 123 127 138 145 148 146 108 70 70 83 58 35 61 71 79 88 95 322 313 338 358 10 19 27 20 17 9 6 4 12 25
161 159 156 148 153 159 161 157 149 145 138 129 117 111 110 112 112 113 102 76 64 59 51 46 46 47 47 45 27 303 298 299 322 337 351 354 1 354 352 347 344 346 0
167 166 168 166 163 160 162 155 149 149 141 131 117 109 103 99 99 98 87 62 50 53 58 51 39 30 17 5 351 321 301 293 295 317 331 335 344 341 335 334 327 326 328
169 173 176 179 175 167 155 155 150 139 140 133 128 102 76 51 36 20 28 33 11 355 346 342 332 321 317 308 310 315 296 303 305 303 313 315 329 333 324 320 317 313 318
177 181 183 186 182 176 168 155 148 148 144 143 139 108 353 319 305 312 285 288 303 304 304 304 303 304 305 302 303 269 272 295 301 308 305 310 314 326 319 310 309 310 313
184 186 187 188 186 183 181 176 170 166 169 178 194 251 311 325 328 316 313 291 283 288 283 285 289 290 293 300 301 301 305 299 303 303 299 298 293 304 309 308 316 321 318
186 196 191 190 187 187 187 186 185 184 188 185 176 149 29 7 0 355 352 347 347 335 315 285 279 285 290 283 301 297 296 294 295 300 298 290 289 285 288 298 294 294 303
195 198 198 197 195 194 191 194 196 205 192 166 162 197 309 341 351 354 348 347 347 347 350 330 328 315 292 287 292 303 297 301 299 293 290 289 287 279 278 281 281 284 285
196 200 202 205 204 202 198 191 194 194 202 204 207 268 306 323 332 331 331 331 334 328 333 331 325 321 309 306 306 303 303 302 303 305 312 307 296 291 290 285 281 284 282
201 206 200 203 202 205 200 203 206 212 218 236 247 262 276 288 299 305 311 311 318 319 318 317 315 313 302 286 285 287 289 290 293 287 289 302 292 285 284 283 287 291 292
206 209 212 209 211 215 218 223 226 232 240 245 254 260 272 279 285 292 296 299 305 304 303 304 305 303 303 292 287 286 285 285 286 284 281 282 279 281 282 277 278 284 284
212 213 213 213 220 229 230 239 245 248 254 258 262 267 271 277 284 286 287 291 295 293 294 293 297 297 294 289 288 288 293 290 284 281 284 273 272 274 278 277 275 274 275
220 224 226 228 230 238 247 251 256 261 265 268 271 276 281 284 286 288 289 291 292 290 289 291 292 290 293 291 287 287 288 291 281 272 278 268 266 272 272 271 278 276 274
228 234 239 243 242 245 255 259 261 265 270 275 281 286 289 288 287 287 289 291 291 289 289 290 291 292 290 289 287 286 288 287 284 274 281 264 267 271 270 270 265 287 269
228 232 239 245 251 250 252 257 267 280 290 290 294 297 294 293 291 287 287 288 291 290 293 292 289 288 289 289 284 284 287 288 283 275 279 270 264 265 265 255 276 273 256
234 235 237 242 249 254 260 268 270 277 282 285 290 295 297 294 295 294 292 294 295 296 294 291 289 288 286 287 281 280 280 283 277 276 272 265 262 264 268 255 264 265 264
229 233 237 243 249 252 256 260 264 268 273 283 290 292 290 288 289 290 290 291 292 293 291 293 294 289 288 286 282 277 276 279 280 268 262 246 248 256 260 258 257 260 266
223 234 241 243 243 244 247 250 258 269 276 282 288 293 293 294 294 295 294 294 292 290 291 294 295 293 288 284 284 277 270 274 272 276 257 246 242 256 251 247 246 255 259
150 167 183 205 225 239 254 265 273 277 284 288 293 297 299 298 299 299 300 299 297 294 295 297 296 295 290 285 282 282 272 273 276 262 264 254 246 241 259 251 243 243 255
95 106 115 121 193 268 285 287 292 302 307 309 312 311 310 312 311 309 303 299 294 290 290 291 293 291 288 284 279 278 277 277 274 272 262 259 261 262 253 253 253 257 249